SL-16 DEB, 42239

Orbit data source: Space-Track

SL-16 DEB, 42239 is space debris in LEO originally from a launch on Fri, 26 Mar 1993 UTC launched from the Tyuratam Missile And Space Complex (TTMTR). Debris objects in space refer to the collection of defunct objects orbiting the Earth. Examples of debris include non-operational satellites, rocket bodies, and fragments generated from explosions, collisions, or faulty payload assembly.

Loading next visibility...
Identifier
42239, 1993-016CT
Orbit
LEO
Country
Flag of CISCIS
Related business
Manufacturer
Unknown
Mission
Spacecraft
Bus & Motor
Unknown
Mass
Unknown
Launch date (UTC)
1993-03-26 (33 years ago)
Launch vehicle
Unknown
Launch site
Tyuratam Missile And Space Complex (TTMTR)
Object type
Payload
Rocket body
Debris
Shape & HBR
Unknown shape, 0.1 m
Radar Cross Section
Small (<0.1 m²)

Expand to show TLE details & history
Last TLE update: 3 days ago

TLE from 3 days ago
0 SL-16 DEB
1 42239U 93016CT  26032.68738262  .00012630  00000-0  34341-2 0  9993
2 42239  71.1216 156.0582 0080927  89.3206 271.7205 14.45665546914915
Epoch: 2026-02-01T16:29Z
TLE epoch observation values (Epoch: 2026-02-01T16:29:49.858Z)
Latitude
-0.00007°
Longitude
136.70699°
Altitude
741.02 km
Speed
7.485 km/s
True Right ascension
10h 24m 13s
True Declination
0° 00' 00"
Sunlit
Object was in full shadow at epoch
Visualization orbit readout
Latitude
Unknown
Longitude
Unknown
Altitude
Unknown
Speed
Unknown
Apparent Right ascension
Unknown
Apparent Declination
Unknown
Sunlit
N/A
Visualization observer readout
Local Sidereal Time
18:49:50
Azimuth
Unknown
Elevation
Unknown
Doppler factor
Unknown
Orbital elements
Apogee altitude
795.31 km
Perigee altitude
680.137 km
Semi-major axis
7,115.86 km
Eccentricity
0.00809
Inclination
71.1216°
RAAN
156.0582°
Arg. of periapsis
89.3206°
True anomaly
270.79332°
Mean anomaly
271.7205°
Eccentric anomaly
271.25693°
Mean motion
3.61578 °/min
Orbital period
99.56 mins
BSTAR
0.0034341
Loading maneuver chart data...
Computing Atmospheric mass density...
Loading historical data...
Loading historical data...
Loading historical data...
Loading historical data...
Loading historical data...
Loading historical data...
Loading historical data...

Documentation

Showing up to 5 results
|